Tracking 21045 objects as of 4-Aug-2020
HD Live streaming from Space Station
objects crossing your sky now

DMSP 5D-2 F11 DEB

Track DMSP 5D-2 F11 DEB now!
10-day predictions


NORAD ID: 28318
Int'l Code: 1991-082AF
Perigee: 738.7 km
Apogee: 820.6 km
Inclination: 98.8 °
Period: 100.3 minutes
Semi major axis: 7150 km
RCS: 0.0172 m2 (small)
Launch date: November 28, 1991
Source: United States (US)
Launch site: AIR FORCE WESTERN TEST RANGE (AFWTR)

Note: This is SATELLITE DEBRIS
aabbcc
Your satellite tracking list
Your tracking list is empty




NASA's NSSDC Master Catalog

Two Line Element Set (TLE):
1 28318U 91082AF  20216.64492469 +.00001266 +00000-0 +44510-3 0  9999
2 28318 098.7691 281.1678 0057261 160.6438 352.9581 14.35760607843508
Source of the keplerian elements: AFSPC